Skip Page Navigation
NASA JPL Caltech
NASA Logo - Jet Propulsion Laboratory + View the NASA Portal
+ Near-Earth Object (NEO) Program
Search JPL
JPL Home Earth Solar System Stars & Galaxies Technology
JPL Solar System Dynamics
BODIES ORBITS EPHEMERIDES TOOLS PHYSICAL DATA DISCOVERY FAQ SITE MAP
JPL Small-Body Database Browser
Search: [ help ]  
10811 Lau (1993 FM19)
Classification: Main-belt Asteroid          SPK-ID: 2010811
Ephemeris | Orbit Diagram | Orbital Elements | Physical Parameters | Discovery Circumstances | Close-Approach Data ]

[ show orbit diagram ]
Orbital Elements at Epoch 2457000.5 (2014-Dec-09.0) TDB
Reference: JPL 8 (heliocentric ecliptic J2000)
 Element Value Uncertainty (1-sigma)   Units 
e .223859919632289 6.1986e-08  
a 2.928585414034229 3.0979e-08 AU
q 2.272992518612233 1.7512e-07 AU
i 7.177954815328902 6.1315e-06 deg
node 120.449292288715 5.0256e-05 deg
peri 289.8156977344048 5.2404e-05 deg
M 242.6167669592885 1.9668e-05 deg
tp 2457597.382485682020
(2016-Jul-27.88248568)
0.00010579 JED
period 1830.565484348196
5.01
2.9046e-05
7.952e-08
d
yr
n .1966605418260599 3.1205e-09 deg/d
Q 3.584178309456226 3.7914e-08 AU
  Orbit Determination Parameters
   # obs. used (total)      1081  
   data-arc span      11894 days (32.56 yr)  
   first obs. used      1982-01-19  
   last obs. used      2014-08-13  
   planetary ephem.      DE431  
   SB-pert. ephem.      SB431-BIG16  
   condition code      0  
   fit RMS      .50421  
   data source      ORB  
   producer      Otto Matic  
   solution date      2014-Sep-12 13:57:24  

Additional Information
 Earth MOID = 1.29549 AU 
 T_jup = 3.228 
[ show covariance matrix ]

Ephemeris | Orbit Diagram | Orbital Elements | Physical Parameters | Discovery Circumstances | Close-Approach Data ]

Physical Parameter Table
Parameter Symbol Value Units Sigma Reference Notes
absolute magnitude H 12.5 mag n/a MPO263446  

10811 Lau           Discovered 1993 Mar. 17 at the European Southern Observatory in the course of the Uppsala-ESO Survey of Asteroids and Comets.
Lau is a parish on southern Gotland. The resonating echo in its large church lasts for up to twelve seconds.
NOTE: some special characters may not display properly (any characters within {} are an attempt to place the proper accent above a character)
Reference: 20060219/MPCPages.arcLast Updated: 2010-06-03

[ show close-approach data ]
Alternate Designations
 1993 FM19 = 1982 BK9 = 1990 RE12 = 1991 YQ 
Ephemeris | Orbit Diagram | Orbital Elements | Physical Parameters | Discovery Circumstances | Close-Approach Data ]
ABOUT SSD CREDITS/AWARDS PRIVACY/COPYRIGHT GLOSSARY LINKS
FirstGov 2014-Oct-24 13:30 UT
(server date/time)  
NASA Home Page
Site Manager:   Donald K. Yeomans
Webmaster  Alan B. Chamberlin